Погода Троицко-Печерск

Хотите узнать прогноз погоды Троицко-Печерск? Тогда Вам сюда: Погода Троицко-Печерск

Поиск расширенной информации на нашем сайте:

Полезная информация:

Новости сайта



02.01.2020
Опубликован Долгосрочный прогноз погоды по городам России и ближнего зарубежья на январь 2020 года.
Карты: Прогноз на январь и февраль 2020 года, Сравнение прогнозируемой аномалии приземной температуры воздуха на январь 2020 года по разным моделям.




Погода Троицко-Печерск - сегодня

Время (UTC), дата Ветер
(°,м/с) 
Видим.   Явления Облачность Т
(°С)
Тd
(°С)
f(%) Тe
(°С)
Pmin
(гПа)
dP
(гПа)
Po
(мм)
O2
(г/м3)
Тmin Tmax R s Состояние
почвы
21 22.09.20 280 (З) 10 км  слаб. морось  10/10 300 м 
[St]
+5.6 +4.3 91 +5  985  1.5  727  286           
00 23.09.20 280 (З) 10 км  слаб. морось  10/10 300 м 
[St]
+5.1 +4.2 94 +5  987.2  2.1  728  287           
03 23.09.20 280 (З) 10 км  слаб. морось  10/10 300 м 
[St]
+5.1 +3.7 91 +5  989.5  2.3  730  288  +4.8       
06 23.09.20 280 (З) н/о    н/о 
+7.2 +4.7 84 +7  991.7  2.3  732  286           
09 23.09.20 300 (СЗ) 20000 м    10/10 300 м кучево-дожд. 
[Cb cap]
+6.8 +4.5 85 +6  995.2  3.4  734  288           
12 23.09.20 310 (СЗ) 3{11}  20000 м  {ливн. осадки}  10/10 300 м кучево-дожд. 
[Cb cap]
+6.9 +2.6 74 +6  1000.4  5.1  738  290           
15 23.09.20 310 (СЗ) 4-10{11}  н/о    н/о 
+6.4 +4 85 +5  1005.9  5.3  742  292    +8.8     
18 23.09.20 310 (СЗ) 3{12}  20000 м  {ливн. осадки}  10/10 300 м кучево-дожд. 
[Cb cap]
+6.1 +3.2 82 +5  1008.9  2.9  744  293           
21 23.09.20 310 (СЗ) 20000 м    10/10 300 м кучево-дожд. 
[Cb cap]
+4.4 +1.6 82 +3  1012.4  3.3  747  296           
00 24.09.20 290 (З) н/о    н/о 
+1.4 -0.3 88 +1  1015.9  3.2  749  300           
03 24.09.20 290 (З) 20000 м    1/0 верхняя 
[Ci fib]
+1.1 -0 92 +2  1018.3  2.4  751  301  +0.6        влажная 
06 24.09.20 300 (СЗ) 20000 м    3/0 верхняя 
[Ci fib]
+6.5 +1.5 70 +7  1020.4  2.4  753  296           
09 24.09.20 230 (ЮЗ) 20000 м    8/0 средняя, верхняя 
[Ac trans|Ci fib]
+9.8 +1.1 55 +10  1020.9  0.7  753  293           
12 24.09.20 210 (ЮЗ) 20000 м    10/0 средняя, верхняя 
[Ac As|Ci fib]
+10.4 +1.1 52 +12  1021.2  0.2  753  292           
15 24.09.20 190 (Ю) 20000 м    6/0 средняя, верхняя 
[Ac As|Ci fib]
+6.3 +2.9 79 +6  1021.7  0.3  754  296    +11.2       
18 24.09.20 180 (Ю) 20000 м    8/0 средняя, верхняя 
[Ac As|Ci fib]
+5 +2.5 84 +5  1022  0.2  754  298           
21 24.09.20 200 (Ю) 20000 м    9/0 средняя, верхняя 
[Ac As|Ci fib]
+5.3 +2.4 82 +6  1022.2  0.2  754  298           
00 25.09.20 200 (Ю) 10 км  слаб. ливневой дождь  10/8 300 м кучево-дожд., средняя 
[Cb cap|Ac As]
+6 +4.7 91 +6  1022.2  0.1  754  297           
03 25.09.20 190 (Ю) 20000 м  {ливн. осадки}  10/6 300 м кучево-дожд., средняя 
[Cb cap|Ac As]
+6.8 +5.9 94 +8  1022.7  0.5  754  296  +4.3    0.5    влажная 
06 25.09.20 150 (ЮВ) 20000 м  {ливн. осадки}  10/0 средняя 
[Ac und]
+8.4 +7.6 95 +9  1023.1  0.5  755  294           
09 25.09.20 180 (Ю) 20000 м    8/0 средняя, верхняя 
[Ac As|Ci fib]
+11.6 +8.8 83 +12  1023.3  0.4  755  290           
12 25.09.20 190 (Ю) 20000 м    10/6 600 м средняя 
[Sc|Ac As]
+13.4 +9.7 78 +16  1023.5  0.4  755  288           
15 25.09.20 200 (Ю) 20000 м    10/9 600 м средняя 
[Sc|Ac und]
+13 +9.9 81 +14  1023.9  0.3  756  289    +14.1       
18 25.09.20 200 (Ю) 20000 м    6/0 средняя 
[Ac As]
+11.8 +9.7 87 +13  1024.3  0.3  756  290           
21 25.09.20 200 (Ю) 20000 м    3/0 средняя 
[Ac trans]
+8.8 +8.2 96 +10  1025.1  0.6  756  294           
Время (UTC), дата Ветер
(°,м/с) 
Видим.   Явления Облачность Т
(°С)
Тd
(°С)
f(%) Тe
(°С)
Pmin
(гПа)
dP
(гПа)
Po
(мм)
O2
(г/м3)
Тmin Tmax R s Состояние
почвы

Для получения пояснительной информации подведите курсор к названию столбца.

ПОГОДА Троицко-Печерск - архив

Всё, что Вы хотите узнать о погоде Троицко-Печерск - удобно и подробно!

Выберите нужную дату (начиная с 1 января 2019* года) и нажмите кнопку "Найти".
Будут отображены архивные сводки погоды по пункту Троицко-Печерск, начиная с указанной даты.


Отображать данные в формате CSV (для использования в таблицах Excel)


Внимание! Наш архив погоды предназначен исключительно для личного некоммерческого использования в познавательных целях. Если Вам необходимы официальные справки о состоянии погоды (для производственных, юридических, коммерческих и т.п. целей), обращайтесь в органы Росгидромета.

*Примечание: данная дата относится к архиву по метеостанциям СССР (Россия, СНГ, Балтия).
Архив по метеостанциям Зарубежной Европы и Азии (кроме Китая) хранится 10 дней, по другим регионам земного шара (Китай, Африка, Америка, Австралия, Океания) - 1 день.

Троицко-Печерск - район местоположения метеостанции


Название, широта, долгота, высота метеостанции:
Троицко-Печерск 62.7°ш. 56.2°д. 139 м над ур. моря [Российская Федерация]

Дополнительная информация

В oтличие oт бoльшинства пoгoдных сайтoв мы публикуем пoдрoбную метеoинфoрмацию в детальнoм прoфессиoнальнoм фoрмате.

Характеристики температуры и влажнoсти вoздуха измеряются на высoте 2 м в тени вдали oт зданий и деревьев.
Скoрoсть ветра измеряется на высoте 10 м (на урoвне рoста челoвека скoрoсть ветра ниже в 1.5-2 раза). Если метеoстанция нахoдится в гoрoде или в лесу, тo скoрoсть ветра занижена на 2-4 м/с пo сравнению с oткрытым местoм. Скoрoсть ветра над акватoриями крупных рек и oзёр, а также на вершинах хoлмoв на 2-5 м/с выше, чем в oбычных услoвиях.
Атмoсфернoе давление в разных тoчках местнoсти мoжет значительнo oтличаться oт давления на метеoстанции, в зависимoсти oт услoвий рельефа (при пoдъёме на 10 м давление пoнижается примернo на 1 мм рт.ст.).